Content
SEND FEEDBACK

Daily
Averages
Monthly
Summary
United States of America

UMATAC, GUAM


Home > North America > United States > Guam
Elevation: 190 feet     Latitude: 13 17N     Longitude: 144 40E

WEATHER
 
SELECT A DAY
Number of Records: 342,554;   Date Range: 1/1/95 - 9/16/14
 
SHARE

PRINT THIS DATA

[ ← Previous Day ]
WEATHER ALMANAC - MAY 3, 2013
[ Next Day → ]
[ °C ]   °F
Weather ElementAverageHighLow
Temperature80.7 °F86 °F (2:12 pm)77 °F (3:35 am)
Dewpoint76.6 °F78.8 °F (10:31 am)73.2 °F (3:55 am)
Humidity87.4 %94 % (12:05 am)74 % (2:12 pm)
Barometer29.86 in29.92 in (10:05 pm)29.82 in (2:14 am)
Wind Speed11.8 mph19.6 mph (10:55 am)
Wind Gust24.2 mph (9:57 pm)
Weather ElementAverage
Visibility8.7 mi
Wind DirectionESE (109.8 °)

Weather ElementTotal
Precipitation0.22 in
Cooling Degree Days16.5 (Base 65)
Growing Degree Days31.5 (Base 50)
Averaged from 128 records on May 3, 2013
WEATHER CONDITIONS BREAKOUT
WIND DIRECTION BREAKOUT
WEATHER BY HOUR - MAY 3, 2013
[ °C ]   °F
Local TimeTemperatureDewpointHumidityBarometerVisibilityWind DirectionWind SpeedGust SpeedPrecipitationEventsConditions
12:05 AM78.8 °F77.0 °F94 %29.84 in10.0 miESE (120°)8.1 mphScattered Clouds
12:12 AM78.8 °F77.0 °F94 %29.84 in10.0 miESE (120°)10.4 mphMostly Cloudy
12:14 AM78.8 °F77.0 °F94 %29.84 in10.0 miESE (120°)9.2 mphMostly Cloudy
12:16 AM78.8 °F77.0 °F94 %29.84 in10.0 miESE (120°)10.4 mphMostly Cloudy
12:24 AM78.8 °F77.0 °F94 %29.84 in10.0 miESE (110°)10.4 mphMostly Cloudy
12:32 AM78.8 °F77.0 °F94 %29.84 in10.0 miESE (110°)9.2 mphMostly Cloudy
12:55 AM79.2 °F76.1 °F90 %29.84 in10.0 miESE (110°)11.5 mphMostly Cloudy
1:01 AM78.8 °F75.2 °F89 %29.84 in10.0 miESE (110°)10.4 mphMostly Cloudy
1:09 AM78.8 °F77.0 °F94 %29.84 in10.0 miESE (110°)9.2 mphScattered Clouds
1:50 AM78.8 °F75.2 °F89 %29.83 in10.0 miESE (110°)10.4 mphMostly Cloudy
1:55 AM78.4 °F75.0 °F89 %29.83 in10.0 miESE (120°)8.1 mphMostly Cloudy
1:58 AM78.8 °F75.2 °F89 %29.83 in10.0 miESE (120°)9.2 mphMostly Cloudy
2:05 AM78.8 °F75.2 °F89 %29.83 in10.0 miESE (120°)9.2 mphRainLight Rain
2:06 AM78.8 °F75.2 °F89 %29.83 in10.0 miESE (120°)8.1 mphRainLight Rain
2:11 AM78.8 °F75.2 °F89 %29.83 in10.0 miESE (120°)8.1 mphRainLight Rain
2:14 AM78.8 °F75.2 °F89 %29.82 in10.0 miESE (110°)8.1 mphScattered Clouds
2:55 AM79.2 °F76.3 °F91 %29.82 in10.0 miESE (110°)8.1 mph0.00 inScattered Clouds
3:22 AM78.8 °F77.0 °F94 %29.82 in5.0 miESE (120°)12.7 mphMostly Cloudy
3:23 AM78.8 °F75.2 °F89 %29.82 in5.0 miESE (110°)12.7 mphRainRain
3:26 AM78.8 °F75.2 °F89 %29.82 in4.0 miESE (110°)9.2 mphRainRain
3:35 AM77.0 °F73.4 °F89 %29.82 in10.0 miESE (110°)9.2 mphScattered Clouds
3:55 AM77.5 °F73.2 °F86 %29.82 in10.0 miESE (110°)11.5 mph0.02 inPartly Cloudy
4:17 AM78.8 °F75.2 °F89 %29.82 in10.0 miESE (120°)10.4 mphMostly Cloudy
4:37 AM78.8 °F77.0 °F94 %29.82 in10.0 miEast (90°)11.5 mphOvercast
4:40 AM78.8 °F77.0 °F94 %29.82 in10.0 miEast (100°)11.5 mphOvercast
4:41 AM78.8 °F77.0 °F94 %29.82 in10.0 miEast (100°)13.8 mphOvercast
4:42 AM78.8 °F77.0 °F94 %29.82 in10.0 miEast (100°)12.7 mphOvercast
4:50 AM78.8 °F77.0 °F94 %29.82 in10.0 miESE (110°)12.7 mphMostly Cloudy
4:53 AM78.8 °F77.0 °F94 %29.82 in10.0 miESE (110°)12.7 mphMostly Cloudy
4:54 AM78.8 °F77.0 °F94 %29.82 in10.0 miESE (110°)12.7 mphMostly Cloudy
4:55 AM78.4 °F76.1 °F92 %29.82 in10.0 miEast (100°)11.5 mphMostly Cloudy
5:55 AM78.8 °F75.7 °F90 %29.83 in10.0 miEast (100°)10.4 mphMostly Cloudy
6:25 AM80.6 °F77.0 °F89 %29.84 in10.0 miESE (110°)10.4 mphMostly Cloudy
6:51 AM80.6 °F77.0 °F89 %29.86 in10.0 miESE (120°)10.4 mphMostly Cloudy
6:54 AM80.6 °F77.0 °F89 %29.90 in10.0 miESE (120°)10.4 mphMostly Cloudy
6:55 AM80.1 °F77.0 °F90 %29.86 in10.0 miESE (120°)9.2 mphMostly Cloudy
6:57 AM80.6 °F77.0 °F89 %29.86 in10.0 miESE (120°)9.2 mphScattered Clouds
7:12 AM80.6 °F77.0 °F89 %29.86 in10.0 miSSE (150°)6.9 mphMostly Cloudy
7:15 AM80.6 °F77.0 °F89 %29.87 in10.0 miSE (130°)6.9 mphMostly Cloudy
7:55 AM82.2 °F77.5 °F86 %29.88 in10.0 miESE (110°)11.5 mphMostly Cloudy
8:13 AM82.4 °F77.0 °F84 %29.89 in10.0 miESE (120°)11.5 mphScattered Clouds
8:33 AM82.4 °F77.0 °F84 %29.89 in10.0 miESE (120°)11.5 mphMostly Cloudy
8:55 AM82.8 °F77.5 °F84 %29.89 in10.0 miESE (120°)12.7 mphOvercast
9:06 AM84.2 °F77.0 °F79 %29.89 in10.0 miESE (110°)12.7 mphMostly Cloudy
9:55 AM83.7 °F77.4 °F81 %29.88 in10.0 miESE (110°)13.8 mphPartly Cloudy
10:31 AM84.2 °F78.8 °F84 %29.87 in10.0 miESE (110°)16.1 mphMostly Cloudy
10:34 AM84.2 °F77.0 °F79 %29.87 in10.0 miESE (110°)17.3 mphScattered Clouds
10:55 AM83.7 °F77.0 °F80 %29.87 in10.0 miESE (120°)19.6 mph23.0 mphMostly Cloudy
11:55 AM84.7 °F76.3 °F76 %29.86 in10.0 miESE (120°)16.1 mphScattered Clouds
12:30 PM84.2 °F78.8 °F84 %29.85 in10.0 miESE (110°)16.1 mphMostly Cloudy
12:55 PM83.8 °F77.0 °F80 %29.85 in10.0 miESE (110°)12.7 mphMostly Cloudy
1:05 PM84.2 °F77.0 °F79 %29.85 in6.0 miESE (110°)13.8 mphRainLight Rain
1:14 PM82.4 °F78.8 °F89 %29.85 in8.0 miESE (110°)15.0 mphMostly Cloudy
1:16 PM82.4 °F77.0 °F84 %29.85 in10.0 miESE (120°)17.3 mphMostly Cloudy
1:55 PM84.6 °F77.7 °F80 %29.84 in10.0 miESE (110°)13.8 mph0.01 inScattered Clouds
1:58 PM84.2 °F77.0 °F79 %29.84 in10.0 miESE (120°)12.7 mphMostly Cloudy
2:00 PM84.2 °F77.0 °F79 %29.83 in10.0 miESE (120°)17.3 mphMostly Cloudy
2:05 PM84.2 °F77.0 °F79 %29.83 in10.0 miESE (110°)16.1 mph23.0 mphMostly Cloudy
2:07 PM84.2 °F77.0 °F79 %29.84 in10.0 miESE (110°)15.0 mph23.0 mphScattered Clouds
2:12 PM86.0 °F77.0 °F74 %29.84 in9.0 miESE (120°)17.3 mphMostly Cloudy
2:14 PM86.0 °F77.0 °F74 %29.84 in9.0 miESE (120°)16.1 mphMostly Cloudy
2:47 PM86.0 °F77.0 °F74 %29.83 in10.0 miESE (110°)15.0 mphScattered Clouds
2:53 PM86.0 °F77.0 °F74 %29.83 in10.0 miESE (120°)15.0 mphMostly Cloudy
2:55 PM85.8 °F77.2 °F75 %29.83 in10.0 miESE (120°)16.1 mphMostly Cloudy
2:57 PM86.0 °F77.0 °F74 %29.83 in10.0 miESE (110°)15.0 mphMostly Cloudy
3:03 PM84.2 °F77.0 °F79 %29.84 in10.0 miEast (100°)12.7 mphRainLight Rain
3:09 PM84.2 °F77.0 °F79 %29.84 in10.0 miESE (110°)12.7 mphRainLight Rain
3:12 PM84.2 °F77.0 °F79 %29.84 in10.0 miESE (110°)12.7 mphMostly Cloudy
3:52 PM82.4 °F77.0 °F84 %29.83 in10.0 miESE (110°)13.8 mphMostly Cloudy
3:55 PM82.6 °F77.4 °F84 %29.83 in10.0 miESE (110°)15.0 mph0.00 inMostly Cloudy
3:56 PM82.4 °F77.0 °F84 %29.83 in10.0 miESE (110°)13.8 mphMostly Cloudy
4:03 PM82.4 °F77.0 °F84 %29.83 in10.0 miESE (110°)13.8 mphMostly Cloudy
4:04 PM82.4 °F77.0 °F84 %29.83 in10.0 miESE (110°)12.7 mphOvercast
4:22 PM82.4 °F77.0 °F84 %29.83 in10.0 miESE (120°)12.7 mphMostly Cloudy
4:24 PM82.4 °F77.0 °F84 %29.83 in10.0 miESE (120°)11.5 mphMostly Cloudy
4:25 PM82.4 °F77.0 °F84 %29.83 in10.0 miESE (110°)10.4 mphMostly Cloudy
4:28 PM82.4 °F77.0 °F84 %29.83 in2.0 miESE (120°)15.0 mphRainLight Rain
4:29 PM82.4 °F77.0 °F84 %29.83 in1.5 miESE (120°)13.8 mphRainHeavy Rain
4:30 PM82.4 °F77.0 °F84 %29.83 in1.2 miESE (110°)12.7 mphRainHeavy Rain
4:34 PM80.6 °F77.0 °F89 %29.83 in0.8 miEast (100°)16.1 mph21.9 mphRainHeavy Rain
4:37 PM80.6 °F77.0 °F89 %29.84 in0.8 miEast (100°)17.3 mphRainLight Rain
4:38 PM80.6 °F77.0 °F89 %29.84 in1.0 miESE (110°)15.0 mphRainRain
4:40 PM78.8 °F77.0 °F94 %29.84 in1.2 miEast (100°)10.4 mph21.9 mphRainRain
4:42 PM78.8 °F75.2 °F89 %29.84 in1.0 miEast (90°)9.2 mph21.9 mphRainRain
4:43 PM78.8 °F75.2 °F89 %29.84 in1.2 miEast (100°)9.2 mph21.9 mphRainRain
4:45 PM78.8 °F75.2 °F89 %29.84 in1.5 miESE (110°)6.9 mphRainRain
4:48 PM78.8 °F75.2 °F89 %29.84 in2.5 miESE (110°)8.1 mphRainLight Rain
4:50 PM78.8 °F77.0 °F94 %29.84 in4.0 miESE (110°)8.1 mphRainLight Rain
4:55 PM79.7 °F77.2 °F92 %29.84 in9.0 miEast (100°)8.1 mph0.14 inRainLight Rain
4:56 PM80.6 °F77.0 °F89 %29.84 in10.0 miEast (100°)9.2 mphOvercast
4:58 PM80.6 °F77.0 °F89 %29.84 in9.0 miESE (110°)12.7 mphMostly Cloudy
5:06 PM80.6 °F77.0 °F89 %29.85 in9.0 miEast (100°)11.5 mphOvercast
5:14 PM80.6 °F77.0 °F89 %29.84 in10.0 miESE (110°)11.5 mphMostly Cloudy
5:55 PM80.4 °F77.2 °F90 %29.86 in10.0 miESE (110°)10.4 mphOvercast
6:55 PM80.1 °F76.3 °F88 %29.88 in10.0 miESE (110°)11.5 mphMostly Cloudy
6:57 PM80.6 °F75.2 °F84 %29.88 in10.0 miEast (100°)11.5 mphScattered Clouds
7:03 PM80.6 °F75.2 °F84 %29.88 in10.0 miEast (100°)10.4 mphMostly Cloudy
7:13 PM80.6 °F77.0 °F89 %29.89 in10.0 miEast (100°)12.7 mphScattered Clouds
7:16 PM80.6 °F77.0 °F89 %29.89 in10.0 miEast (100°)11.5 mphMostly Cloudy
7:30 PM80.6 °F77.0 °F89 %29.89 in10.0 miESE (110°)9.2 mphMostly Cloudy
7:55 PM79.9 °F76.6 °F90 %29.89 in10.0 miEast (100°)11.5 mphMostly Cloudy
7:57 PM80.6 °F77.0 °F89 %29.89 in10.0 miEast (100°)11.5 mphScattered Clouds
8:02 PM80.6 °F77.0 °F89 %29.90 in10.0 miEast (100°)11.5 mphMostly Cloudy
8:12 PM80.6 °F77.0 °F89 %29.90 in10.0 miEast (90°)12.7 mphScattered Clouds
8:26 PM80.6 °F77.0 °F89 %29.91 in10.0 miEast (100°)12.7 mphMostly Cloudy
8:55 PM80.1 °F76.1 °F88 %29.91 in10.0 miEast (90°)15.0 mphMostly Cloudy
9:08 PM78.8 °F75.2 °F89 %29.91 in10.0 miEast (100°)12.7 mphMostly Cloudy
9:12 PM78.8 °F75.2 °F89 %29.91 in10.0 miEast (100°)12.7 mphScattered Clouds
9:13 PM78.8 °F75.2 °F89 %29.91 in10.0 miEast (100°)11.5 mphMostly Cloudy
9:18 PM78.8 °F75.2 °F89 %29.91 in10.0 miEast (100°)10.4 mphScattered Clouds
9:50 PM78.8 °F77.0 °F94 %29.91 in10.0 miEast (100°)8.1 mphMostly Cloudy
9:53 PM80.6 °F77.0 °F89 %29.91 in10.0 miEast (100°)9.2 mphMostly Cloudy
9:55 PM79.9 °F77.0 °F91 %29.91 in10.0 miEast (100°)11.5 mph18.4 mphMostly Cloudy
9:57 PM80.6 °F77.0 °F89 %29.91 in7.0 miEast (90°)16.1 mph24.2 mphRainLight Rain
9:59 PM78.8 °F75.2 °F89 %29.91 in6.0 miEast (90°)13.8 mph24.2 mphRainLight Rain
10:05 PM78.8 °F75.2 °F89 %29.92 in5.0 miESE (110°)10.4 mph24.2 mphRainLight Rain
10:11 PM78.8 °F75.2 °F89 %29.92 in10.0 miESE (110°)9.2 mphMostly Cloudy
10:22 PM78.8 °F77.0 °F94 %29.92 in10.0 miESE (120°)8.1 mphMostly Cloudy
10:23 PM78.8 °F77.0 °F94 %29.92 in10.0 miESE (120°)8.1 mphMostly Cloudy
10:40 PM78.8 °F77.0 °F94 %29.91 in10.0 miESE (110°)10.4 mphMostly Cloudy
10:49 PM80.6 °F77.0 °F89 %29.91 in10.0 miEast (100°)11.5 mphMostly Cloudy
10:55 PM79.7 °F77.0 °F91 %29.91 in10.0 miEast (100°)11.5 mph0.01 inMostly Cloudy
11:31 PM78.8 °F77.0 °F94 %29.91 in2.5 miESE (110°)15.0 mphRainRain
11:38 PM78.8 °F75.2 °F89 %29.91 in2.5 miSE (130°)11.5 mphRainLight Rain
11:39 PM78.8 °F75.2 °F89 %29.91 in3.0 miESE (120°)10.4 mphRainLight Rain
11:41 PM77.0 °F75.2 °F94 %29.91 in7.0 miESE (110°)10.4 mphRainLight Rain
11:50 PM77.0 °F75.2 °F94 %29.91 in10.0 miEast (100°)6.9 mphMostly Cloudy
11:55 PM78.1 °F75.6 °F92 %29.91 in10.0 miEast (100°)6.9 mph0.04 inMostly Cloudy
Hourly data recorded from PGUA, located miles away from Umatac, Guam







STORIES FROM OUR PARTNERS